K4AGR-13 Weather Reports


time (UTC)temp
C
wind
direction
speed
KPH
gust
KPH
rain 1hr
cm
rain 24hr
cm
rain mn
cm
humidity
%
barometer
mb
20260505054153 12 216 0.0 0.0 0.00 0.00 0.00 83 1014.7
20260505053650 12 216 0.0 0.0 0.00 0.00 0.00 82 1015.2
20260505053146 12 216 0.0 0.0 0.00 0.00 0.00 81 1015.3
20260505052643 12 216 0.0 0.0 0.00 0.00 0.00 81 1014.8
20260505052141 12 216 0.0 1.6 0.00 0.00 0.00 80 1015.2
20260505051637 12 216 0.0 0.0 0.00 0.00 0.00 80 1014.8
20260505051136 12 216 0.0 0.0 0.00 0.00 0.00 80 1014.8
20260505050633 13 216 0.0 0.0 0.00 0.00 0.00 79 1014.8
20260505050131 13 216 0.0 0.0 0.00 0.00 0.00 77 1015.1
20260505041601 14 216 0.0 0.0 0.00 0.00 0.00 73 1015.3
20260505041058 14 216 0.0 0.0 0.00 0.00 0.00 71 1015.5
20260505040555 14 216 0.0 0.0 0.00 0.00 0.00 72 1015.4
20260505040053 15 216 0.0 0.0 0.00 0.00 0.00 71 1015.6
20260505035549 15 216 0.0 0.0 0.00 0.00 0.00 69 1015.7
20260505035045 15 216 0.0 0.0 0.00 0.00 0.00 69 1015.7
20260505034542 15 216 0.0 0.0 0.00 0.00 0.00 67 1015.7
20260505034039 15 216 0.0 0.0 0.00 0.00 0.00 68 1015.7
20260505033536 14 216 0.0 1.6 0.00 0.00 0.00 71 1015.8
20260505033034 15 216 0.0 0.0 0.00 0.00 0.00 77 1015.9
20260505032531 15 216 0.0 0.0 0.00 0.00 0.00 77 1015.9
20260505032028 15 216 0.0 0.0 0.00 0.00 0.00 73 1016.1
20260505031525 16 216 0.0 0.0 0.00 0.00 0.00 70 1016.0
20260505031021 16 216 0.0 0.0 0.00 0.00 0.00 66 1016.0
20260505030518 16 216 0.0 1.6 0.00 0.00 0.00 62 1015.8
20260505030014 17 216 0.0 0.0 0.00 0.00 0.00 59 1015.8
20260505025510 17 216 0.0 0.0 0.00 0.00 0.00 58 1015.9
20260505025010 17 216 0.0 0.0 0.00 0.00 0.00 58 1015.9
20260505024506 17 216 0.0 0.0 0.00 0.00 0.00 57 1016.0
20260505024003 17 200 0.0 0.0 0.00 0.00 0.00 56 1016.1
20260505023500 17 191 0.0 0.0 0.00 0.00 0.00 55 1015.8
20260505022957 17 191 0.0 0.0 0.00 0.00 0.00 54 1015.9
20260505022455 17 192 0.0 1.6 0.00 0.00 0.00 55 1015.8
20260505021952 18 218 0.0 0.0 0.00 0.00 0.00 54 1015.9
20260505021448 18 218 0.0 1.6 0.00 0.00 0.00 53 1015.8
20260505020944 18 218 0.0 0.0 0.00 0.00 0.00 53 1015.8
20260505020439 18 218 0.0 0.0 0.00 0.00 0.00 52 1015.6
20260505015936 18 224 0.0 0.0 0.00 0.00 0.00 51 1015.6
20260505015434 18 221 0.0 0.0 0.00 0.00 0.00 51 1015.5
20260505014931 19 223 0.0 0.0 0.00 0.00 0.00 50 1015.8
20260505014428 19 234 3.2 3.2 0.00 0.00 0.00 50 1015.5
20260505013925 20 239 1.6 1.6 0.00 0.00 0.00 49 1015.6
20260505013422 20 228 3.2 3.2 0.00 0.00 0.00 48 1015.4
20260505012920 20 208 0.0 1.6 0.00 0.00 0.00 49 1015.3
20260505012418 20 217 0.0 0.0 0.00 0.00 0.00 49 1015.1
20260505011914 20 205 1.6 1.6 0.00 0.00 0.00 48 1015.1
20260505011410 20 203 0.0 0.0 0.00 0.00 0.00 48 1015.1
20260505010906 20 238 4.8 6.4 0.00 0.00 0.00 47 1015.1
20260505010402 20 213 1.6 3.2 0.00 0.00 0.00 48 1014.7
20260505005858 21 228 1.6 1.6 0.00 0.00 0.00 47 1014.8
20260505005355 21 225 1.6 1.6 0.00 0.00 0.00 46 1014.8
20260505004853 21 210 3.2 3.2 0.00 0.00 0.00 45 1014.6
20260505004349 21 214 1.6 1.6 0.00 0.00 0.00 45 1014.5
20260505003847 21 217 1.6 1.6 0.00 0.00 0.00 44 1014.6
20260505003344 21 212 1.6 3.2 0.00 0.00 0.00 44 1014.5
20260505002839 21 194 3.2 4.8 0.00 0.00 0.00 46 1014.5
20260505002337 21 221 1.6 1.6 0.00 0.00 0.00 45 1014.1
20260505001835 21 221 0.0 0.0 0.00 0.00 0.00 42 1014.1
20260505001332 22 221 0.0 1.6 0.00 0.00 0.00 42 1014.1
20260505000829 22 221 0.0 0.0 0.00 0.00 0.00 40 1014.2
20260505000327 23 221 0.0 0.0 0.00 0.00 0.00 41 1014.3
20260504235823 23 221 0.0 0.0 0.00 0.00 0.00 38 1014.1
20260504235320 24 221 0.0 0.0 0.00 0.00 0.00 33 1014.2
20260504234817 24 221 0.0 0.0 0.00 0.00 0.00 31 1014.1
20260504234315 25 221 0.0 0.0 0.00 0.00 0.00 31 1014.2
20260504233811 25 221 0.0 0.0 0.00 0.00 0.00 29 1014.4
20260504233306 25 219 1.6 3.2 0.00 0.00 0.00 28 1014.3
20260504232803 26 189 1.6 1.6 0.00 0.00 0.00 28 1014.2
20260504232301 26 203 1.6 1.6 0.00 0.00 0.00 27 1014.0
20260504231758 26 193 0.0 0.0 0.00 0.00 0.00 27 1014.0
20260504231254 26 186 1.6 1.6 0.00 0.00 0.00 27 1014.1
20260504230750 26 223 1.6 3.2 0.00 0.00 0.00 25 1014.0
20260504230248 26 230 3.2 3.2 0.00 0.00 0.00 24 1014.0
20260504225747 26 172 1.6 1.6 0.00 0.00 0.00 25 1014.0
20260504225243 26 186 1.6 1.6 0.00 0.00 0.00 25 1014.3
20260504224740 26 149 1.6 3.2 0.00 0.00 0.00 26 1014.1
20260504224237 27 267 0.0 0.0 0.00 0.00 0.00 25 1014.1
20260504223733 27 298 3.2 4.8 0.00 0.00 0.00 25 1014.5
20260504223229 27 279 3.2 4.8 0.00 0.00 0.00 25 1014.4
20260504222726 27 248 1.6 1.6 0.00 0.00 0.00 25 1014.3
20260504222223 27 228 0.0 0.0 0.00 0.00 0.00 28 1014.3
20260504221721 27 291 0.0 1.6 0.00 0.00 0.00 27 1014.5
20260504221218 27 248 1.6 1.6 0.00 0.00 0.00 26 1014.4
20260504220714 27 299 3.2 4.8 0.00 0.00 0.00 27 1014.4
20260504220212 26 190 1.6 1.6 0.00 0.00 0.00 28 1014.6
20260504215708 27 185 1.6 1.6 0.00 0.00 0.00 28 1014.6
20260504215205 27 203 3.2 4.8 0.00 0.00 0.00 25 1014.6
20260504214701 27 227 0.0 1.6 0.00 0.00 0.00 26 1014.6
20260504214157 27 221 4.8 4.8 0.00 0.00 0.00 24 1014.5
20260504213654 27 272 1.6 3.2 0.00 0.00 0.00 26 1014.5
20260504213151 27 266 3.2 4.8 0.00 0.00 0.00 27 1014.3
20260504212647 27 167 1.6 3.2 0.00 0.00 0.00 27 1014.4
20260504212144 27 249 3.2 3.2 0.00 0.00 0.00 26 1014.4
20260504211642 26 289 4.8 6.4 0.00 0.00 0.00 28 1014.4
20260504211138 26 64 3.2 3.2 0.00 0.00 0.00 27 1014.4
20260504210636 26 167 4.8 4.8 0.00 0.00 0.00 27 1014.5
20260504210132 26 147 1.6 1.6 0.00 0.00 0.00 28 1014.4
20260504205629 26 154 8.0 9.7 0.00 0.00 0.00 30 1014.4
20260504205127 26 178 8.0 9.7 0.00 0.00 0.00 27 1014.7
20260504204625 27 156 4.8 4.8 0.00 0.00 0.00 27 1014.6
20260504204124 27 198 1.6 1.6 0.00 0.00 0.00 28 1014.7
20260504203622 26 225 3.2 3.2 0.00 0.00 0.00 30 1014.6
20260504203120 27 180 3.2 3.2 0.00 0.00 0.00 28 1014.6
20260504202620 27 190 6.4 9.7 0.00 0.00 0.00 28 1014.8
20260504202117 27 132 3.2 3.2 0.00 0.00 0.00 29 1014.9
20260504201614 27 52 1.6 3.2 0.00 0.00 0.00 29 1015.1
20260504201112 26 20 3.2 3.2 0.00 0.00 0.00 30 1014.9
20260504200609 26 182 1.6 1.6 0.00 0.00 0.00 31 1015.2
20260504200105 26 150 6.4 6.4 0.00 0.00 0.00 31 1015.3
20260504195601 26 177 8.0 9.7 0.00 0.00 0.00 33 1015.5
20260504195057 25 183 3.2 4.8 0.00 0.00 0.00 30 1015.4
20260504194554 26 167 6.4 9.7 0.00 0.00 0.00 30 1015.4
20260504194049 26 147 11.3 14.5 0.00 0.00 0.00 30 1015.3
20260504193546 26 136 8.0 9.7 0.00 0.00 0.00 31 1015.6
20260504193045 26 184 6.4 11.3 0.00 0.00 0.00 30 1015.7
20260504192543 26 260 3.2 3.2 0.00 0.00 0.00 31 1015.7
20260504192041 25 215 1.6 1.6 0.00 0.00 0.00 29 1015.9
20260504191538 25 157 6.4 9.7 0.00 0.00 0.00 32 1016.0
20260504191034 25 158 6.4 6.4 0.00 0.00 0.00 32 1016.0
20260504190531 25 106 6.4 6.4 0.00 0.00 0.00 34 1016.0
20260504190027 25 1 11.3 12.9 0.00 0.00 0.00 33 1016.2
20260504185524 25 63 6.4 6.4 0.00 0.00 0.00 32 1016.3
20260504185020 25 99 3.2 4.8 0.00 0.00 0.00 33 1016.4
20260504184516 26 77 3.2 4.8 0.00 0.00 0.00 31 1016.3
20260504184012 25 3 0.0 0.0 0.00 0.00 0.00 34 1016.7
20260504183509 25 224 8.0 11.3 0.00 0.00 0.00 30 1016.5
20260504183007 25 167 0.0 1.6 0.00 0.00 0.00 33 1016.7
20260504182503 25 89 8.0 9.7 0.00 0.00 0.00 32 1016.5
20260504182001 25 57 3.2 3.2 0.00 0.00 0.00 33 1016.5
20260504181457 25 57 6.4 6.4 0.00 0.00 0.00 33 1016.7
20260504180956 25 153 8.0 9.7 0.00 0.00 0.00 32 1016.5
20260504180455 25 128 9.7 11.3 0.00 0.00 0.00 34 1016.7
20260504175953 25 110 1.6 1.6 0.00 0.00 0.00 32 1016.7
20260504175450 25 137 6.4 6.4 0.00 0.00 0.00 35 1016.7
20260504174947 25 125 6.4 6.4 0.00 0.00 0.00 34 1016.9
20260504174445 25 6 1.6 1.6 0.00 0.00 0.00 34 1016.8
20260504173942 24 235 3.2 3.2 0.00 0.00 0.00 35 1017.1
20260504173438 24 186 8.0 11.3 0.00 0.00 0.00 35 1017.0
20260504172936 23 127 1.6 1.6 0.00 0.00 0.00 35 1017.0
20260504172431 25 105 9.7 11.3 0.00 0.00 0.00 33 1017.0
20260504171928 25 156 6.4 6.4 0.00 0.00 0.00 34 1017.1
20260504171425 25 96 0.0 1.6 0.00 0.00 0.00 35 1017.2
20260504170922 23 70 0.0 1.6 0.00 0.00 0.00 37 1017.3
20260504170418 23 174 1.6 1.6 0.00 0.00 0.00 36 1017.3
20260504160337 24 141 8.0 9.7 0.00 0.00 0.00 35 1018.2
20260504150802 23 135 3.2 3.2 0.00 0.00 0.00 39 1018.1
20260504150259 23 340 6.4 9.7 0.00 0.00 0.00 38 1018.3
20260504141229 22 83 0.0 0.0 0.00 0.00 0.00 48 1018.2
20260504140725 21 123 1.6 1.6 0.00 0.00 0.00 47 1018.3
20260504140221 20 106 1.6 1.6 0.00 0.00 0.00 51 1018.3
20260504130649 18 104 1.6 1.6 0.00 0.00 0.00 59 1018.3
20260504130146 17 122 1.6 1.6 0.00 0.00 0.00 63 1018.3
20260504120110 12 307 0.0 0.0 0.00 0.00 0.00 86 1018.2
20260504110538 8 305 0.0 0.0 0.00 0.00 0.00 93 1017.8
20260504100459 8 326 1.6 1.6 0.00 0.00 0.00 92 1017.7
20260504081852 10 327 0.0 0.0 0.00 0.00 0.00 86 1017.9
20260504081349 10 327 1.6 1.6 0.00 0.00 0.00 87 1018.1
20260504080844 10 327 1.6 1.6 0.00 0.00 0.00 86 1018.3
20260504080342 10 327 0.0 0.0 0.00 0.00 0.00 86 1018.4
20260504070309 10 275 0.0 0.0 0.00 0.00 0.00 88 1018.3
20260504060230 11 275 1.6 1.6 0.00 0.00 0.00 85 1018.6